Regional Weather Roundup
Issued by NWS Tiyan, Guam

Home | Current Version | Previous Version | Text Only | Print | Product List | Glossary On
Versions: 1 2 3 4 5 6 7 8 9 10 11 12 13 14 15 16 17 18 19 20 21 22 23 24 25 26 27 28 29 30 31 32 33 34 35 36 37 38 39 40 41 42 43 44 45 46 47 48 49
000
ASGM40 PGUM 200012
RWRGUM
WEATHER ROUNDUP FOR THE MARIANAS
NATIONAL WEATHER SERVICE TIYAN GU
1000 AM CHST SAT SEP 20 2014

GUZ001>004-200100-
MARIANA ISLANDS-

CITY           SKY/WX    TMP DP  RH WIND       PRES   REMARKS
GUAM AIRPORT   MOSUNNY   84  79  84 E10       29.88R HX  96
ANDERSEN AFB   SUNNY     84  75  74 E12       29.88R HX  92
ROTA AIRPORT   RAIN      77  75  94 E7        29.89R
TINIAN AP      PTSUNNY   86  79  79 E12       29.85S HX  99
SAIPAN AP      MOSUNNY   88  79  74 E12       29.86S HX 102

$$



USA.gov is the U.S. government's official web portal to all federal, state and local government web resources and services.